Wind_Speed
21 20 20 19 20 20 20 20 19 18 18 18 18 17 17 17 17 17 17 18 19 19 19 19 20 20 21 20 20 20 21 22 22 22 22 22 22 22 21 21 21 21 21 20
22 22 22 21 20 20 21 21 20 19 19 19 18 18 18 18 19 20 20 20 21 21 21 22 22 22 22 22 22 23 23 23 23 23 23 23 23 23 22 22 21 22 22 22
24 23 23 23 21 21 22 22 21 21 20 21 21 21 21 21 21 22 22 23 23 23 23 24 24 24 25 25 25 25 25 25 25 24 24 25 24 24 24 24 23 23 24 24
25 25 27 24 23 23 23 22 23 23 23 24 23 23 22 22 23 23 24 25 25 26 26 25 26 26 27 27 27 27 27 27 26 26 26 26 26 26 26 25 25 25 24 24
27 28 28 26 25 25 25 24 24 25 25 26 25 25 25 25 25 26 26 26 27 28 28 28 28 27 28 28 28 28 28 28 28 28 27 27 27 27 27 27 27 26 26 25
28 28 28 26 25 25 26 26 26 27 28 28 28 27 26 27 28 28 28 27 27 28 28 29 29 29 29 30 30 30 29 29 29 29 28 28 28 28 28 28 28 28 28 27
29 29 29 27 27 27 27 27 27 28 28 28 29 29 28 29 28 29 29 29 29 30 30 30 30 30 30 30 30 30 29 29 29 29 29 29 29 29 29 29 29 29 29 28
30 30 30 28 28 28 28 27 27 27 28 29 29 30 30 30 29 29 30 30 30 30 30 31 31 30 30 31 30 31 30 30 30 30 30 30 30 30 30 29 29 29 29 29
30 30 29 29 29 29 28 28 28 28 28 29 29 29 30 30 30 31 31 30 30 30 31 31 32 32 32 32 31 31 31 31 31 31 31 31 31 31 30 30 30 30 29 29
31 30 29 29 29 29 29 28 28 28 28 28 29 29 30 31 31 31 32 31 31 32 32 32 33 33 33 32 31 31 31 30 30 30 30 30 31 30 30 30 30 30 30 30
31 30 30 29 29 29 29 29 28 28 29 29 30 31 31 31 31 32 33 32 32 32 33 33 33 33 33 33 33 31 30 30 30 30 29 30 30 30 30 31 31 31 30 30
31 30 30 29 29 29 30 30 30 30 30 30 30 31 31 32 32 32 32 32 32 33 33 33 33 32 32 33 33 32 31 30 30 30 29 29 30 29 29 30 31 31 31 31
30 29 29 30 30 30 30 31 31 31 31 31 31 31 31 32 32 33 32 33 33 33 33 33 33 33 33 33 33 32 31 30 30 30 30 30 30 29 29 30 30 31 32 32
29 29 30 30 31 31 31 31 32 31 31 31 32 32 32 32 32 32 33 33 33 33 33 33 33 33 33 33 33 32 32 31 31 30 30 30 30 30 30 30 30 30 31 31
29 29 29 30 30 30 30 30 30 30 31 31 32 32 32 32 32 33 33 34 34 34 33 33 32 33 33 34 33 32 32 31 31 30 29 29 29 30 30 30 30 30 30 30
28 28 28 29 29 29 29 30 30 30 30 31 31 32 32 32 33 33 34 34 35 35 34 33 33 33 34 34 33 33 31 30 29 29 29 29 30 30 30 30 30 30 31 31
27 27 28 28 29 28 29 30 30 30 30 30 30 31 31 31 32 32 33 34 34 35 34 34 33 33 32 32 32 31 30 29 29 29 29 29 30 30 30 30 30 31 31 31
27 27 28 28 28 28 28 29 29 30 30 30 31 31 31 31 31 31 32 32 33 33 33 33 32 32 32 32 31 30 29 29 29 29 30 30 30 30 30 30 31 31 30 30
27 28 27 28 28 27 28 28 29 29 29 29 29 29 30 30 31 31 31 32 32 32 32 31 32 31 30 29 30 30 29 29 28 29 30 30 30 30 31 31 30 31 30 30
25 26 26 27 27 27 28 28 28 28 28 28 28 29 29 29 30 30 31 31 31 31 30 31 30 28 28 28 29 29 29 29 28 28 29 29 29 29 29 29 29 29 29 29
23 23 23 23 25 26 26 26 26 27 28 28 28 28 28 28 29 29 29 29 30 30 30 29 28 27 27 27 27 27 28 28 27 27 27 28 28 27 27 28 28 28 28 27
22 22 22 22 23 24 25 25 26 27 27 26 26 26 26 27 27 27 27 28 28 28 27 27 26 26 26 26 25 26 26 26 26 26 27 27 27 27 27 27 27 27 27 27
22 22 22 23 24 24 24 24 24 24 24 25 25 25 25 25 25 25 25 26 26 25 25 25 24 24 24 24 24 25 26 27 27 27 27 27 28 28 28 27 27 28 27 28
21 21 21 21 22 22 23 23 23 23 23 24 25 24 23 23 23 24 24 24 23 23 23 23 23 23 23 23 24 25 26 26 26 26 27 27 28 27 27 27 28 28 28 28
20 20 19 19 20 21 20 21 21 21 21 21 22 22 22 21 21 21 21 21 20 20 21 21 22 22 22 22 23 24 24 25 25 25 26 26 26 26 27 28 28 27 27 27
18 19 19 19 19 19 19 19 20 20 20 19 19 19 20 19 19 19 19 19 19 20 20 20 20 20 21 22 23 24 24 25 25 25 25 26 26 26 26 26 25 26 26 26
17 17 18 18 18 18 17 17 17 18 17 17 16 17 17 18 18 18 19 19 19 19 19 19 20 20 21 22 23 23 24 25 25 25 25 25 25 25 25 25 25 25 25 25
Wind_Direction
246 247 249 253 258 261 263 265 269 271 271 273 275 273 275 280 283 286 288 291 295 296 297 298 300 303 303 302 303 303 304 302 302 301 301 301 301 301 301 299 300 297 295 293
248 249 252 254 259 263 265 268 270 270 270 273 274 273 274 278 280 282 286 290 293 295 295 295 297 299 301 300 302 301 301 300 299 298 298 297 296 297 298 298 297 295 293 293
251 252 254 256 259 264 267 268 268 267 268 271 273 275 275 277 279 281 284 288 290 292 292 292 295 296 297 298 299 299 299 298 296 295 294 295 295 294 294 295 295 294 293 290
253 254 255 258 261 263 265 267 268 269 271 272 273 275 276 277 278 280 281 284 285 287 288 290 293 294 294 296 297 296 297 297 295 292 291 291 290 289 290 291 292 291 291 289
254 256 258 259 262 264 265 267 268 270 272 272 273 274 274 276 277 279 279 280 282 286 289 291 294 295 295 295 296 295 296 295 293 292 292 291 289 288 288 288 288 289 288 287
256 258 259 261 261 264 266 267 269 271 271 272 274 275 276 276 277 278 278 280 283 287 290 291 292 294 295 297 297 297 295 295 291 290 290 290 289 290 289 287 286 286 285 283
257 259 261 262 264 265 268 271 271 272 272 272 274 275 276 276 277 278 279 281 284 286 289 290 291 293 294 296 296 296 295 294 291 289 290 290 289 289 289 288 287 285 282 280
257 259 261 263 265 266 268 270 271 273 272 274 275 274 274 274 276 278 278 280 283 286 289 291 293 294 295 295 294 294 295 294 291 291 289 288 289 289 288 288 287 285 282 280
258 260 263 264 265 267 268 269 270 272 273 273 274 275 275 274 274 276 278 279 282 285 288 291 293 295 294 294 293 294 295 294 292 291 289 288 288 287 286 286 285 285 283 281
258 261 263 266 267 268 268 269 271 272 273 274 275 275 274 273 273 274 277 279 282 285 287 289 292 294 296 294 294 295 295 294 293 292 290 289 289 288 285 284 283 283 283 282
259 262 263 265 267 268 269 269 270 273 274 275 276 274 274 275 275 276 278 280 282 284 286 288 290 294 295 296 295 295 295 294 294 294 292 290 289 289 287 286 285 283 282 281
260 261 263 265 266 268 269 271 271 273 275 276 277 277 277 278 279 281 280 281 282 284 285 287 289 291 293 295 295 295 295 295 295 295 293 291 290 290 289 287 286 285 283 282
261 262 263 265 266 268 270 271 271 272 274 275 276 278 278 279 280 281 282 283 282 283 284 286 288 291 292 294 295 294 294 295 295 294 294 292 290 290 289 288 286 286 285 284
261 263 264 265 266 267 269 270 271 272 274 275 276 277 278 279 280 280 281 283 283 282 284 285 288 292 293 294 295 295 294 294 294 294 293 292 290 290 290 290 289 288 287 285
261 263 265 266 268 268 270 271 272 274 275 276 277 278 278 278 279 280 281 282 283 284 284 284 286 290 292 293 293 294 294 293 293 293 293 293 292 293 293 291 290 289 288 285
262 264 265 267 268 271 272 272 273 274 275 276 277 278 278 279 280 281 282 282 284 285 285 284 286 288 290 291 292 294 293 292 292 292 294 294 294 294 294 294 292 290 289 288
262 264 266 267 268 270 271 272 273 274 275 277 279 280 281 282 283 284 285 285 285 286 287 286 286 287 288 290 291 292 292 292 292 293 294 295 295 295 294 294 293 292 291 290
262 264 265 265 266 269 271 272 274 275 276 279 281 282 282 284 285 285 286 285 284 285 285 285 285 286 287 287 289 291 292 292 293 294 295 296 296 295 294 293 293 292 293 292
264 265 265 266 266 268 270 272 275 276 278 280 283 285 285 286 286 286 287 287 286 286 286 285 286 286 286 287 289 290 291 292 293 294 296 296 295 295 294 293 293 292 293 293
265 264 264 266 266 268 270 273 273 275 277 280 284 285 285 285 287 288 289 289 288 288 287 286 287 287 288 288 289 291 291 292 294 295 296 296 295 295 294 293 294 294 295 296
265 265 264 266 268 269 270 272 274 276 278 282 284 285 285 285 287 290 291 290 289 289 289 288 287 287 287 288 290 292 294 294 296 298 299 299 299 298 298 298 298 297 297 297
266 267 266 268 269 270 272 274 276 278 279 281 284 286 287 287 289 291 292 292 291 290 289 289 288 288 289 289 290 292 294 295 296 297 298 298 298 298 299 299 298 298 298 298
267 268 268 270 270 272 275 278 280 280 280 283 286 288 290 291 291 292 292 293 293 291 289 289 289 290 290 290 290 291 293 294 296 297 298 298 298 298 298 298 298 298 299 300
266 268 271 273 272 273 276 278 278 279 282 286 288 290 292 293 293 292 292 294 294 292 290 289 289 290 291 291 293 294 295 296 297 297 298 298 298 298 298 299 299 298 298 299
267 271 272 274 275 275 277 276 278 280 284 287 289 290 292 292 292 293 294 295 294 293 293 292 292 293 293 294 296 297 297 298 299 299 299 299 299 299 299 301 301 301 301 301
271 272 272 274 277 276 277 277 280 283 285 288 289 291 292 292 292 294 294 294 295 296 296 295 295 294 294 295 296 298 298 298 299 300 301 301 301 301 301 303 304 304 303 303
272 274 274 275 274 274 277 279 281 284 287 289 291 291 291 292 294 296 297 298 298 300 301 301 300 298 297 297 298 300 300 300 300 301 302 303 303 303 303 304 304 304 304 304
Height
5885 5887 5888 5889 5890 5891 5891 5892 5893 5893 5893 5894 5894 5894 5894 5893 5893 5892 5891 5890 5888 5887 5885 5884 5882 5881 5879 5877 5875 5873 5870 5868 5866 5864 5862 5860 5858 5856 5855 5853 5851 5850 5848 5846
5880 5881 5883 5884 5885 5886 5886 5887 5888 5888 5889 5889 5889 5889 5888 5888 5888 5887 5886 5885 5883 5882 5880 5879 5877 5875 5874 5872 5870 5867 5865 5863 5860 5858 5856 5854 5853 5851 5849 5847 5846 5844 5842 5841
5874 5876 5877 5879 5880 5881 5881 5882 5883 5883 5885 5884 5884 5883 5883 5882 5882 5881 5880 5879 5877 5876 5874 5873 5871 5869 5867 5865 5863 5861 5859 5857 5854 5852 5850 5848 5846 5845 5843 5841 5840 5838 5836 5835
5868 5871 5871 5876 5875 5875 5876 5876 5877 5877 5878 5878 5878 5877 5877 5876 5876 5875 5874 5872 5871 5869 5868 5866 5865 5862 5861 5859 5856 5854 5852 5850 5847 5845 5844 5842 5840 5838 5837 5835 5833 5832 5830 5829
5862 5863 5865 5867 5868 5869 5869 5870 5871 5871 5871 5871 5871 5871 5870 5870 5869 5868 5867 5865 5864 5862 5861 5859 5857 5855 5853 5851 5849 5847 5844 5842 5840 5838 5836 5834 5833 5831 5829 5827 5826 5824 5823 5821
5855 5856 5857 5861 5862 5862 5863 5863 5864 5864 5864 5864 5864 5864 5865 5863 5862 5860 5859 5858 5856 5855 5853 5852 5850 5848 5845 5843 5841 5838 5836 5834 5831 5829 5828 5827 5825 5823 5821 5819 5818 5816 5815 5813
5848 5849 5850 5853 5854 5855 5857 5858 5857 5856 5856 5856 5856 5857 5856 5855 5854 5853 5851 5850 5849 5847 5846 5844 5842 5840 5837 5835 5832 5829 5827 5825 5823 5821 5819 5817 5816 5814 5812 5811 5809 5808 5806 5805
5840 5842 5845 5845 5846 5848 5848 5848 5848 5848 5848 5848 5848 5847 5847 5846 5845 5845 5843 5842 5841 5839 5838 5835 5833 5831 5829 5826 5823 5821 5818 5816 5814 5812 5810 5808 5807 5805 5803 5802 5800 5799 5797 5796
5834 5837 5837 5837 5838 5839 5839 5840 5840 5840 5840 5840 5840 5839 5838 5838 5837 5836 5835 5834 5833 5831 5829 5827 5825 5823 5820 5817 5814 5811 5809 5806 5804 5802 5800 5798 5797 5795 5794 5792 5791 5790 5788 5787
5826 5827 5829 5829 5830 5831 5831 5832 5832 5832 5832 5832 5831 5831 5830 5829 5828 5827 5826 5825 5824 5822 5821 5819 5817 5814 5811 5808 5805 5803 5800 5797 5795 5793 5791 5789 5787 5785 5784 5782 5781 5780 5779 5778
5817 5820 5821 5822 5823 5823 5824 5824 5824 5824 5824 5823 5823 5822 5821 5820 5819 5818 5817 5816 5815 5813 5812 5810 5808 5805 5803 5799 5797 5794 5791 5789 5786 5784 5782 5780 5778 5776 5774 5773 5771 5770 5769 5768
5810 5812 5813 5814 5814 5815 5815 5815 5815 5815 5815 5814 5814 5813 5812 5811 5810 5809 5808 5807 5805 5804 5802 5800 5798 5796 5793 5790 5788 5785 5783 5781 5778 5776 5773 5772 5770 5768 5765 5764 5762 5761 5759 5758
5802 5803 5804 5805 5806 5806 5806 5806 5806 5806 5806 5806 5805 5804 5803 5802 5801 5800 5799 5797 5796 5794 5793 5791 5788 5786 5784 5781 5779 5776 5774 5772 5769 5767 5765 5763 5761 5759 5757 5756 5753 5752 5750 5748
5793 5795 5795 5796 5797 5797 5797 5797 5797 5797 5797 5796 5796 5795 5794 5793 5791 5790 5789 5788 5786 5784 5783 5781 5779 5777 5774 5772 5769 5767 5765 5763 5761 5758 5756 5754 5752 5750 5748 5747 5745 5743 5741 5738
5785 5786 5787 5787 5788 5788 5788 5788 5788 5788 5788 5787 5786 5785 5784 5783 5782 5781 5779 5778 5776 5775 5773 5771 5769 5767 5765 5762 5760 5758 5756 5754 5752 5750 5748 5745 5743 5741 5739 5737 5736 5734 5732 5730
5777 5778 5778 5779 5779 5779 5779 5779 5779 5779 5778 5778 5777 5776 5775 5774 5772 5771 5770 5768 5766 5765 5763 5761 5760 5758 5756 5753 5751 5749 5747 5745 5743 5741 5739 5737 5735 5733 5730 5728 5726 5724 5723 5721
5769 5770 5770 5771 5770 5770 5770 5770 5770 5769 5769 5768 5767 5766 5765 5764 5763 5761 5760 5758 5756 5755 5753 5751 5750 5748 5746 5744 5742 5740 5738 5736 5734 5732 5731 5729 5726 5724 5722 5719 5717 5715 5713 5711
5761 5761 5762 5762 5762 5762 5761 5761 5760 5760 5759 5759 5758 5757 5756 5755 5753 5752 5750 5748 5746 5745 5743 5741 5740 5738 5737 5735 5733 5731 5729 5727 5726 5724 5722 5720 5718 5715 5713 5711 5708 5706 5704 5702
5752 5753 5753 5753 5753 5752 5752 5752 5751 5751 5750 5749 5749 5747 5746 5745 5744 5742 5740 5738 5737 5735 5734 5732 5730 5729 5727 5726 5724 5723 5721 5719 5718 5716 5714 5712 5709 5707 5704 5702 5700 5697 5695 5693
5744 5744 5744 5744 5744 5744 5744 5743 5743 5742 5742 5741 5740 5739 5737 5736 5734 5733 5731 5729 5728 5726 5724 5723 5721 5720 5718 5717 5716 5714 5713 5711 5709 5707 5705 5703 5701 5698 5696 5693 5691 5689 5687 5685
5737 5737 5737 5736 5736 5736 5735 5735 5734 5734 5733 5732 5731 5730 5729 5727 5726 5724 5722 5721 5719 5717 5716 5714 5713 5711 5710 5709 5707 5706 5705 5703 5701 5699 5697 5695 5692 5690 5688 5686 5683 5681 5679 5677
5730 5730 5730 5729 5729 5728 5727 5727 5726 5725 5725 5724 5723 5722 5720 5719 5718 5716 5715 5713 5711 5709 5707 5706 5705 5703 5702 5701 5700 5699 5697 5695 5694 5692 5690 5687 5685 5683 5681 5678 5676 5674 5671 5669
5724 5724 5723 5723 5722 5721 5720 5719 5718 5717 5717 5716 5715 5714 5713 5711 5710 5709 5707 5705 5703 5701 5700 5699 5697 5696 5695 5694 5692 5691 5689 5688 5686 5684 5682 5680 5678 5675 5673 5671 5669 5666 5664 5661
5718 5717 5717 5716 5716 5715 5714 5713 5712 5711 5711 5710 5708 5707 5706 5705 5703 5702 5700 5698 5696 5694 5693 5692 5690 5689 5688 5686 5685 5684 5682 5680 5678 5677 5675 5672 5670 5668 5666 5663 5661 5658 5656 5654
5712 5711 5711 5711 5710 5709 5708 5707 5707 5706 5705 5704 5702 5701 5700 5698 5697 5696 5694 5692 5690 5688 5687 5685 5684 5683 5681 5680 5679 5677 5675 5673 5671 5669 5667 5665 5663 5661 5658 5656 5653 5650 5648 5646
5706 5706 5706 5705 5704 5703 5703 5702 5701 5700 5699 5698 5697 5695 5694 5693 5692 5690 5689 5687 5685 5683 5681 5680 5678 5677 5675 5674 5672 5670 5668 5667 5665 5662 5660 5658 5656 5653 5651 5648 5645 5643 5640 5638
5701 5701 5700 5700 5699 5698 5698 5697 5696 5695 5694 5693 5692 5691 5690 5689 5687 5686 5684 5682 5680 5678 5676 5675 5673 5671 5670 5668 5666 5664 5662 5660 5658 5656 5653 5651 5648 5646 5643 5641 5638 5636 5633 5630